Hastings, NE

9:52 AM CDT on June 22, 2017 (GMT -0500)
Hastings Municipal

Weather History for KHSI - May, 2014

Change the Weather History Date:

Friday, May 16, 2014

  Actual Average Record
Temperature  
Mean Temperature 45 °F 61 °F  
Max Temperature 53 °F 72 °F 94 °F (1927)
Min Temperature 37 °F 51 °F 34 °F (1929)
Degree Days  
Heating Degree Days 20 5  
Month to date heating degree days 151 117  
Since 1 July heating degree days 6294 5956  
Cooling Degree Days 0 2  
Month to date cooling degree days 7 16  
Year to date cooling degree days 15 21  
Moisture  
Dew Point 33 °F    
Average Humidity 67    
Maximum Humidity 83    
Minimum Humidity 50    
Precipitation  
Precipitation T in 0.16 in 2.14 in (1954)
Month to date precipitation 1.67 2.51  
Year to date precipitation 6.46 7.76  
Snow  
Snow 0.00 in 0.00 in - ()
Month to date snowfall 0.0 0.0  
Since 1 July snowfall 21.7 28.8  
Snow Depth 0.00 in    
Sea Level Pressure  
Sea Level Pressure 30.12 in    
Wind  
Wind Speed 6 mph (SE)    
Max Wind Speed 17 mph    
Max Gust Speed 22 mph    
Visibility 10 miles    
Events Rain    
T = Trace of Precipitation, MM = Missing Value Source: NWS Daily Summary

Daily Weather History Graph

Daily Weather History Graph

Search for Another Location

Airport or City:

Trip Planner

Search our weather history database for the weather conditions in past years. The results will help you decide how hot, cold, wet, or windy it might be!

Date:

Astronomy

May. 16, 2014 Rise Set
Actual Time 6:15 AM CDT 8:44 PM CDT
Civil Twilight 5:44 AM CDT 9:15 PM CDT
Nautical Twilight 5:06 AM CDT 9:54 PM CDT
Astronomical Twilight 4:23 AM CDT 10:38 PM CDT
Moon 10:53 PM CDT (5/16) 7:59 AM CDT (5/16)
Length of Visible Light 15h 31m
Length of Day
14h 28m
Waning Gibbous, 95% of the Moon is Illuminated
May 16
Waning Gibbous
May 21
Last Quarter
May 28
New
Jun 5
First Quarter
Jun 12
Full

Hourly Weather History & Observations

Time (CDT) Temp. Windchill Dew Point Humidity Pressure Visibility Wind Dir Wind Speed Gust Speed Precip Events Conditions
12:53 AM 42.1 °F 39.2 °F 27.0 °F 55% 30.17 in 10.0 mi East 4.6 mph - N/A   Clear
1:53 AM 39.9 °F 36.7 °F 27.0 °F 60% 30.17 in 10.0 mi ESE 4.6 mph - N/A   Clear
2:53 AM 41.0 °F 39.0 °F 26.6 °F 57% 30.14 in 10.0 mi South 3.5 mph - N/A   Clear
3:53 AM 37.9 °F - 28.0 °F 68% 30.14 in 10.0 mi Calm Calm - N/A   Clear
4:53 AM 37.9 °F 35.5 °F 28.0 °F 68% 30.14 in 10.0 mi South 3.5 mph - N/A   Clear
5:53 AM 39.0 °F 36.8 °F 28.0 °F 65% 30.13 in 10.0 mi South 3.5 mph - N/A   Clear
6:53 AM 39.9 °F 35.8 °F 28.9 °F 65% 30.11 in 10.0 mi South 5.8 mph - N/A   Scattered Clouds
7:53 AM 43.0 °F 38.2 °F 28.0 °F 56% 30.09 in 10.0 mi South 8.1 mph - N/A   Overcast
8:53 AM 43.0 °F 38.8 °F 30.0 °F 60% 30.11 in 10.0 mi South 6.9 mph - N/A   Overcast
9:53 AM 46.0 °F 41.4 °F 32.0 °F 58% 30.10 in 10.0 mi SSE 9.2 mph - N/A   Overcast
10:53 AM 46.9 °F - 30.9 °F 54% 30.08 in 10.0 mi South 9.2 mph - N/A   Overcast
11:53 AM 48.9 °F - 30.9 °F 50% 30.10 in 10.0 mi SSW 8.1 mph - N/A   Overcast
12:53 PM 50.0 °F - 33.1 °F 52% 30.08 in 10.0 mi South 9.2 mph - N/A   Overcast
1:53 PM 48.9 °F - 37.0 °F 64% 30.05 in 10.0 mi East 6.9 mph - 0.00 in Rain Light Rain
2:53 PM 50.0 °F - 37.9 °F 63% 30.08 in 10.0 mi East 10.4 mph - 0.00 in   Overcast
3:53 PM 50.0 °F - 37.0 °F 61% 30.07 in 10.0 mi ESE 13.8 mph 20.7 mph N/A   Overcast
4:53 PM 52.0 °F - 37.9 °F 59% 30.07 in 10.0 mi ESE 12.7 mph - 0.00 in   Mostly Cloudy
5:53 PM 50.0 °F - 37.0 °F 61% 30.09 in 10.0 mi East 10.4 mph - N/A   Overcast
6:53 PM 48.0 °F - 37.9 °F 68% 30.12 in 10.0 mi East 11.5 mph - N/A   Overcast
7:53 PM 46.9 °F - 37.9 °F 71% 30.13 in 10.0 mi East 8.1 mph - N/A   Overcast
8:53 PM 46.9 °F - 37.0 °F 68% 30.14 in 10.0 mi East 3.5 mph - N/A   Overcast
9:53 PM 46.4 °F - 37.4 °F 71% 30.13 in 10.0 mi Calm Calm - N/A   Overcast
10:53 PM 46.0 °F - 39.9 °F 79% 30.17 in 10.0 mi Calm Calm - N/A   Overcast
11:53 PM 44.1 °F - 39.9 °F 85% 30.17 in 10.0 mi Calm Calm - N/A   Overcast